When you browse on this site, cookies collect data to enhance your experience and personalize the content and advertising you see.
Visit our Privacy Policy to learn more. By continuing to use the site, you agree to this use of cookies and data.
  • In Österreich
  • Länderverzeichnis
  • Für 7 Tage
  • Wassertemperatur
  • Satellitenkarten
  • Wetterkarte
  • News
  • Widgets
  • user-avatar
    Anmelden

    Stündliche Wetter Cagua

    Heute, 21 Februar, Donnerstag

    Zeit Temperatur Niederschläge Wind Luftdruck Luftfeuchtigkeit
    00:00 +23°C° 0 mm 2 m/S 719 mmHg 82%
    01:00 +23°C° 0 mm 1 m/S 719 mmHg 84%
    02:00 +23°C° 0 mm 1 m/S 719 mmHg 86%
    03:00 +22°C° 0 mm 1 m/S 719 mmHg 87%
    04:00 +22°C° 0 mm 1 m/S 719 mmHg 88%
    05:00 +22°C° 0 mm 1 m/S 719 mmHg 89%
    06:00 +23°C° 0 mm 1 m/S 719 mmHg 84%
    07:00 +23°C° 0 mm 1 m/S 720 mmHg 80%
    08:00 +24°C° 0 mm 2 m/S 720 mmHg 76%
    09:00 +26°C° 0 mm 2 m/S 721 mmHg 66%
    10:00 +29°C° 0 mm 2 m/S 721 mmHg 56%
    11:00 +31°C° 0 mm 2 m/S 722 mmHg 46%
    12:00 +34°C° 0 mm 2 m/S 721 mmHg 43%
    13:00 +35°C° 0 mm 2 m/S 721 mmHg 40%
    14:00 +36°C° 0 mm 2 m/S 720 mmHg 37%
    15:00 +35°C° 0 mm 2 m/S 719 mmHg 41%
    16:00 +34°C° 0 mm 2 m/S 718 mmHg 44%
    17:00 +31°C° 0 mm 2 m/S 718 mmHg 48%
    18:00 +30°C° 0 mm 2 m/S 718 mmHg 57%
    19:00 +28°C° 0 mm 2 m/S 718 mmHg 65%
    20:00 +26°C° 0 mm 2 m/S 718 mmHg 73%
    21:00 +25°C° 0 mm 2 m/S 719 mmHg 76%
    22:00 +25°C° 0 mm 2 m/S 719 mmHg 79%
    23:00 +24°C° 0 mm 2 m/S 719 mmHg 82%

    Morgen, 22 Februar, Freitag

    Zeit Temperatur Niederschläge Wind Luftdruck Luftfeuchtigkeit
    00:00 +23°C° 0 mm 2 m/S 719 mmHg 83%
    01:00 +23°C° 0 mm 1 m/S 719 mmHg 84%
    02:00 +22°C° 0 mm 1 m/S 719 mmHg 85%
    03:00 +22°C° 0 mm 1 m/S 719 mmHg 86%
    04:00 +22°C° 0 mm 1 m/S 719 mmHg 86%
    05:00 +22°C° 0 mm 1 m/S 719 mmHg 87%
    06:00 +22°C° 0 mm 1 m/S 719 mmHg 83%
    07:00 +23°C° 0 mm 1 m/S 720 mmHg 79%
    08:00 +24°C° 0 mm 2 m/S 721 mmHg 76%
    09:00 +27°C° 0 mm 2 m/S 721 mmHg 65%
    10:00 +29°C° 0 mm 2 m/S 722 mmHg 53%
    11:00 +32°C° 0 mm 2 m/S 722 mmHg 42%
    12:00 +34°C° 0 mm 2 m/S 722 mmHg 39%
    13:00 +35°C° 0 mm 2 m/S 721 mmHg 36%
    14:00 +36°C° 0 mm 2 m/S 720 mmHg 33%
    15:00 +35°C° 0 mm 2 m/S 719 mmHg 35%
    16:00 +34°C° 0 mm 3 m/S 719 mmHg 38%
    17:00 +33°C° 0 mm 3 m/S 718 mmHg 41%
    18:00 +30°C° 0 mm 3 m/S 718 mmHg 51%
    19:00 +28°C° 0 mm 2 m/S 719 mmHg 62%
    20:00 +25°C° 0 mm 2 m/S 719 mmHg 72%
    21:00 +25°C° 0 mm 2 m/S 720 mmHg 75%
    22:00 +24°C° 0 mm 2 m/S 720 mmHg 79%
    23:00 +24°C° 0 mm 2 m/S 721 mmHg 83%

    übermorgen, 23 Februar, Samstag

    Zeit Temperatur Niederschläge Wind Luftdruck Luftfeuchtigkeit
    00:00 +23°C° 0 mm 2 m/S 720 mmHg 85%
    01:00 +23°C° 0 mm 2 m/S 720 mmHg 86%
    02:00 +23°C° 0 mm 1 m/S 720 mmHg 88%
    03:00 +22°C° 0 mm 1 m/S 719 mmHg 88%
    04:00 +22°C° 0 mm 1 m/S 719 mmHg 89%
    05:00 +22°C° 0 mm 1 m/S 719 mmHg 89%
    06:00 +23°C° 0 mm 1 m/S 720 mmHg 85%
    07:00 +23°C° 0 mm 2 m/S 720 mmHg 82%
    08:00 +24°C° 0 mm 2 m/S 721 mmHg 78%
    09:00 +26°C° 0 mm 2 m/S 722 mmHg 65%
    10:00 +28°C° 0 mm 2 m/S 722 mmHg 52%
    11:00 +30°C° 0 mm 3 m/S 723 mmHg 39%
    12:00 +31°C° 0 mm 3 m/S 722 mmHg 37%
    13:00 +33°C° 0 mm 3 m/S 721 mmHg 35%
    14:00 +35°C° 0 mm 3 m/S 720 mmHg 34%
    15:00 +34°C° 0 mm 3 m/S 719 mmHg 36%
    16:00 +33°C° 0 mm 3 m/S 718 mmHg 38%
    17:00 +31°C° 0 mm 3 m/S 718 mmHg 40%
    18:00 +29°C° 0 mm 3 m/S 718 mmHg 51%
    19:00 +27°C° 0 mm 2 m/S 718 mmHg 62%
    20:00 +24°C° 0 mm 2 m/S 719 mmHg 73%
    21:00 +24°C° 0 mm 2 m/S 719 mmHg 76%
    22:00 +24°C° 0 mm 2 m/S 720 mmHg 80%
    23:00 +24°C° 0 mm 2 m/S 720 mmHg 83%

    24 Februar, Sonntag

    Zeit Temperatur Niederschläge Wind Luftdruck Luftfeuchtigkeit
    00:00 +23°C° 0 mm 1 m/S 720 mmHg 84%
    01:00 +23°C° 0 mm 1 m/S 720 mmHg 84%
    02:00 +23°C° 0 mm 1 m/S 719 mmHg 84%
    03:00 +23°C° 0 mm 1 m/S 719 mmHg 85%
    04:00 +22°C° 0 mm 1 m/S 719 mmHg 86%
    05:00 +22°C° 0 mm 1 m/S 719 mmHg 87%
    06:00 +21°C° 0 mm 2 m/S 719 mmHg 82%
    07:00 +23°C° 0 mm 2 m/S 720 mmHg 77%
    08:00 +24°C° 0 mm 2 m/S 721 mmHg 72%
    09:00 +26°C° 0 mm 2 m/S 721 mmHg 63%
    10:00 +29°C° 0 mm 3 m/S 721 mmHg 54%
    11:00 +31°C° 0 mm 3 m/S 722 mmHg 45%
    12:00 +31°C° 0 mm 3 m/S 721 mmHg 45%
    13:00 +33°C° 0 mm 3 m/S 720 mmHg 45%
    14:00 +33°C° 0 mm 3 m/S 719 mmHg 44%
    15:00 +33°C° 0 mm 3 m/S 719 mmHg 48%
    16:00 +31°C° 0 mm 3 m/S 718 mmHg 52%
    17:00 +30°C° 0 mm 3 m/S 717 mmHg 55%
    18:00 +28°C° 0 mm 3 m/S 718 mmHg 63%
    19:00 +27°C° 0 mm 2 m/S 718 mmHg 71%
    20:00 +25°C° 0 mm 2 m/S 718 mmHg 79%
    21:00 +25°C° 0 mm 2 m/S 719 mmHg 81%
    22:00 +24°C° 0 mm 1 m/S 719 mmHg 83%
    23:00 +24°C° 0 mm 1 m/S 719 mmHg 85%

    25 Februar, Montag

    Zeit Temperatur Niederschläge Wind Luftdruck Luftfeuchtigkeit
    00:00 +23°C° 0 mm 1 m/S 719 mmHg 87%
    01:00 +23°C° 0 mm 1 m/S 719 mmHg 88%
    02:00 +23°C° 0 mm 1 m/S 718 mmHg 90%
    03:00 +23°C° 0.1 mm 1 m/S 718 mmHg 89%
    04:00 +23°C° 0.1 mm 1 m/S 718 mmHg 89%
    05:00 +23°C° 0.1 mm 1 m/S 718 mmHg 88%
    06:00 +23°C° 0 mm 1 m/S 719 mmHg 85%
    07:00 +24°C° 0 mm 1 m/S 720 mmHg 83%
    08:00 +24°C° 0 mm 1 m/S 720 mmHg 80%
    09:00 +26°C° 0 mm 1 m/S 721 mmHg 71%
    10:00 +28°C° 0 mm 2 m/S 721 mmHg 61%
    11:00 +30°C° 0 mm 2 m/S 721 mmHg 51%
    12:00 +31°C° 0 mm 2 m/S 721 mmHg 51%
    13:00 +31°C° 0 mm 2 m/S 720 mmHg 50%
    14:00 +31°C° 0 mm 2 m/S 719 mmHg 50%
    15:00 +30°C° 0 mm 3 m/S 719 mmHg 52%
    16:00 +30°C° 0 mm 3 m/S 718 mmHg 55%
    17:00 +29°C° 0 mm 3 m/S 718 mmHg 57%
    18:00 +28°C° 0 mm 2 m/S 718 mmHg 65%
    19:00 +26°C° 0 mm 2 m/S 719 mmHg 72%
    20:00 +25°C° 0 mm 2 m/S 719 mmHg 79%
    21:00 +25°C° 0 mm 2 m/S 719 mmHg 81%
    22:00 +24°C° 0 mm 1 m/S 719 mmHg 83%
    23:00 +24°C° 0 mm 1 m/S 719 mmHg 85%

    26 Februar, Dienstag

    Zeit Temperatur Niederschläge Wind Luftdruck Luftfeuchtigkeit
    00:00 +24°C° 0 mm 1 m/S 719 mmHg 86%
    01:00 +24°C° 0 mm 1 m/S 719 mmHg 88%
    02:00 +23°C° 0 mm 1 m/S 719 mmHg 89%
    03:00 +23°C° 0.1 mm 1 m/S 719 mmHg 89%
    04:00 +23°C° 0.1 mm 1 m/S 719 mmHg 90%
    05:00 +23°C° 0.1 mm 1 m/S 719 mmHg 90%
    06:00 +23°C° 0 mm 1 m/S 719 mmHg 86%
    07:00 +24°C° 0 mm 1 m/S 720 mmHg 81%
    08:00 +24°C° 0 mm 2 m/S 721 mmHg 77%
    09:00 +27°C° 0 mm 2 m/S 721 mmHg 65%
    10:00 +29°C° 0 mm 2 m/S 721 mmHg 54%
    11:00 +32°C° 0 mm 2 m/S 722 mmHg 42%
    12:00 +34°C° 0 mm 2 m/S 721 mmHg 40%
    13:00 +35°C° 0 mm 2 m/S 720 mmHg 37%
    14:00 +36°C° 0 mm 2 m/S 719 mmHg 35%
    15:00 +35°C° 0 mm 3 m/S 719 mmHg 37%
    16:00 +34°C° 0 mm 3 m/S 719 mmHg 39%
    17:00 +33°C° 0 mm 3 m/S 718 mmHg 42%
    18:00 +30°C° 0 mm 2 m/S 718 mmHg 53%
    19:00 +27°C° 0 mm 2 m/S 719 mmHg 63%
    20:00 +25°C° 0 mm 2 m/S 719 mmHg 74%
    21:00 +24°C° 0 mm 2 m/S 719 mmHg 78%
    22:00 +24°C° 0 mm 2 m/S 720 mmHg 81%
    23:00 +23°C° 0 mm 2 m/S 720 mmHg 85%
    Mehr zeigen